Regional Weather Roundup
Issued by NWS Cleveland, OH

Home | Current Version | Previous Version | Text Only | Print | Product List | Glossary Off
Versions: 1 2 3 4 5 6 7 8 9 10 11 12 13 14 15 16 17 18 19 20 21 22 23 24 25 26 27 28 29 30 31 32 33 34 35 36 37 38 39 40 41 42 43 44 45 46 47 48 49 50

000
ASUS41 KCLE 240712
RWRCLE
OHIO REGIONAL WEATHER ROUNDUP
NATIONAL WEATHER SERVICE WILMINGTON, OH
300 AM EDT WED MAY 24 2017

NOTE: "FAIR" INDICATES FEW OR NO CLOUDS BELOW 12,000 FEET WITH NO
SIGNIFICANT WEATHER AND/OR OBSTRUCTIONS TO VISIBILITY.

OHZ001>008-015>018-024>027-034-035-043-044-240800-
   NORTHWEST OHIO

CITY           SKY/WX    TMP DP  RH WIND       PRES   REMARKS
DEFIANCE       FAIR      57  49  74 NE6       29.62F
FINDLAY        FAIR      58  49  72 E5        29.61F
TOLEDO EXPRESS FAIR      60  49  66 NE6       29.62F
TOLEDO EXEC    FAIR      60  54  80 NE6       29.63F
LIMA           MOCLDY    59  54  83 E3        29.61F
$$

OHZ009>014-019>023-028>033-038-089-240800-
   NORTHEAST OHIO

CITY           SKY/WX    TMP DP  RH WIND       PRES   REMARKS
CLE-HOPKINS    MOCLDY    63  52  67 SE5       29.66F
CLE-LAKEFRONT  FAIR      64  51  62 SE7       29.63F
CUY CO. ARPT   NOT AVBL
LORAIN-ELYRIA  FAIR      59  52  77 SW3       29.65F
ASHTABULA      FAIR      54  50  86 SE5       29.69F
AKRON-CANTON   CLOUDY    62  53  72 SE9       29.66F
WOOSTER        CLOUDY    61  58  90 S5        29.66S
MANSFIELD      MOCLDY    61  59  93 S9        29.65S
YOUNGSTOWN     CLOUDY    58  50  75 SE6       29.69F
$$

OHZ042-051>053-060>062-070>072-077>081-240800-
  SOUTHWEST OHIO

CITY           SKY/WX    TMP DP  RH WIND       PRES   REMARKS
CINC-COVINGTON CLOUDY    62  59  90 S5        29.59F
CINC-LUNKEN    FAIR      61  60  97 E3        29.60F
HAMILTON       FAIR      62  59  90 CALM      29.60F
DAYTON         CLOUDY    61  56  83 SE8       29.61F
WRIGHT-PAT AFB FAIR      62  59  93 CALM      29.60F
DAYTON GENERAL FAIR      61  57  87 SE5       29.59F
WILMINGTON     FAIR      59  59 100 E5        29.60F
$$

OHZ036-037-039>041-045>050-054>059-063>069-073>076-082>088-240800-
  CENTRAL AND SOUTHEAST OHIO

CITY           SKY/WX    TMP DP  RH WIND       PRES   REMARKS
COLUMBUS       CLOUDY    63  59  87 SE6       29.63F
OSU AIRPORT    MOCLDY    63  61  93 SE6       29.63F
BOLTON FIELD   FAIR      61  60  97 CALM      29.63F
RICKENBACK AFB FAIR      60  59  96 E3        29.62F
NEWARK         MOCLDY    61  58  90 CALM      29.64F
MARION         FAIR      62  57  83 SE7       29.64F
LANCASTER      FAIR      63  58  83 SE6       29.63F
ZANESVILLE     CLOUDY    62  58  86 E3        29.64F
NEW PHILLY     CLOUDY    62  57  83 SE3       29.67F
$$




USA.gov is the U.S. government's official web portal to all federal, state and local government web resources and services.